Location: ?????
(55.6500°N, 37.2500°E)
Time: 13:03:27
(UTC+00:00)

BREEZE-M DEB (TANK) - Pass Details

Date: 19 May 2025
Orbit: 282 x 12173 km, 49.5° (Epoch: 19 June)

Event Time Altitude Azimuth Distance (km) Brightness Sun altitude
Rises 20:49:17 0° 283° (WNW) 8,054 8.5 -14.0°
Reaches altitude 10° 20:56:59 10° 278° (W) 5,181 7.4 -14.1°
Maximum altitude 21:06:48 35° 219° (SW) 1,510 4.1 -14.3°
Enters shadow 21:09:00 22° 170° (S) 1,499 3.9 -14.3°
